Dillon, MT

7:19 AM MDT on June 22, 2017 (GMT -0600)
Dillon

Weather History for KDLN - September, 2013

Change the Weather History Date:

Wednesday, September 25, 2013

  Actual Average Record
Temperature  
Mean Temperature 41 °F 51 °F  
Max Temperature 47 °F 66 °F 87 °F (2001)
Min Temperature 34 °F 37 °F 20 °F (1984)
Degree Days  
Heating Degree Days 24    
Month to date heating degree days 142  
Since 1 July heating degree days 148  
Cooling Degree Days 0    
Month to date cooling degree days 19  
Year to date cooling degree days 247  
Moisture  
Dew Point 37 °F    
Average Humidity 86    
Maximum Humidity 100    
Minimum Humidity 71    
Precipitation  
Precipitation 0.63 in 0.03 in 0.84 in (1981)
Month to date precipitation 2.18 0.74  
Year to date precipitation 9.18 9.04  
Snow  
Snow 0.00 in - - ()
Snow Depth 0.00 in    
Sea Level Pressure  
Sea Level Pressure 29.66 in    
Wind  
Wind Speed 10 mph (NE)    
Max Wind Speed 24 mph    
Max Gust Speed 40 mph    
Visibility 9 miles    
Events Rain    
T = Trace of Precipitation, MM = Missing Value Source: NWS Daily Summary

Daily Weather History Graph

Daily Weather History Graph

Search for Another Location

Airport or City:

Trip Planner

Search our weather history database for the weather conditions in past years. The results will help you decide how hot, cold, wet, or windy it might be!

Date:

Astronomy

Sep. 25, 2013 Rise Set
Actual Time 7:21 AM MDT 7:21 PM MDT
Civil Twilight 6:51 AM MDT 7:50 PM MDT
Nautical Twilight 6:17 AM MDT 8:25 PM MDT
Astronomical Twilight 5:42 AM MDT 9:00 PM MDT
Moon 11:16 PM MDT (9/25) 1:44 PM MDT (9/25)
Length of Visible Light 12h 58m
Length of Day
12h 00m
Waning Gibbous, 63% of the Moon is Illuminated
Sep 25
Waning Gibbous
Sep 26
Last Quarter
Oct 4
New
Oct 11
First Quarter
Oct 18
Full

Hourly Weather History & Observations

Time (MDT) Temp. Windchill Dew Point Humidity Pressure Visibility Wind Dir Wind Speed Gust Speed Precip Events Conditions
12:53 AM 37.9 °F 34.4 °F 36.0 °F 93% 29.69 in 10.0 mi WNW 4.6 mph - N/A   Clear
1:53 AM 39.9 °F - 37.0 °F 89% 29.71 in 10.0 mi Calm Calm - N/A   Overcast
2:53 AM 39.0 °F 31.8 °F 37.9 °F 96% 29.68 in 10.0 mi NNW 11.5 mph - N/A   Overcast
3:53 AM 39.0 °F 35.7 °F 37.0 °F 93% 29.68 in 10.0 mi SE 4.6 mph - N/A   Overcast
4:53 AM 39.0 °F - 37.0 °F 93% 29.65 in 10.0 mi Calm Calm - N/A   Scattered Clouds
5:53 AM 36.0 °F - 35.1 °F 97% 29.65 in 10.0 mi Calm Calm - N/A   Clear
6:16 AM 35.6 °F - 35.6 °F 100% 29.69 in 10.0 mi Calm Calm - N/A   Scattered Clouds
6:28 AM 35.6 °F - 35.6 °F 100% 29.69 in 10.0 mi Calm Calm - N/A   Mostly Cloudy
6:51 AM 35.6 °F 31.7 °F 35.6 °F 100% 29.69 in 10.0 mi ESE 4.6 mph - N/A   Mostly Cloudy
6:53 AM 36.0 °F 32.1 °F 35.1 °F 97% 29.67 in 10.0 mi ESE 4.6 mph - N/A   Mostly Cloudy
7:22 AM 37.4 °F 33.8 °F 35.6 °F 93% 29.68 in 9.0 mi NE 4.6 mph - N/A   Overcast
7:53 AM 37.9 °F 33.5 °F 37.0 °F 97% 29.66 in 8.0 mi ENE 5.8 mph - N/A   Overcast
8:16 AM 37.4 °F 33.8 °F 37.4 °F 100% 29.68 in 10.0 mi NE 4.6 mph - N/A   Overcast
8:36 AM 37.4 °F 32.1 °F 37.4 °F 100% 29.67 in 10.0 mi NE 6.9 mph - N/A   Overcast
8:50 AM 39.2 °F 37.0 °F 37.4 °F 93% 29.68 in 10.0 mi NE 3.5 mph - N/A   Overcast
8:53 AM 39.0 °F 36.8 °F 37.9 °F 96% 29.66 in 10.0 mi NE 3.5 mph - N/A   Overcast
9:14 AM 39.2 °F 34.2 °F 37.4 °F 93% 29.67 in 10.0 mi NE 6.9 mph - N/A   Overcast
9:53 AM 41.0 °F 33.9 °F 37.9 °F 89% 29.65 in 10.0 mi NE 12.7 mph - N/A   Overcast
10:53 AM 43.0 °F 37.7 °F 39.0 °F 86% 29.65 in 10.0 mi NE 9.2 mph - N/A   Overcast
11:37 AM 44.6 °F 38.8 °F 39.2 °F 81% 29.66 in 10.0 mi NE 11.5 mph - N/A   Overcast
11:51 AM 44.6 °F 39.7 °F 39.2 °F 81% 29.66 in 10.0 mi NE 9.2 mph - 0.00 in   Overcast
11:53 AM 44.1 °F 38.6 °F 39.0 °F 82% 29.63 in 10.0 mi NE 10.4 mph - 0.00 in   Overcast
12:53 PM 46.0 °F 39.6 °F 37.9 °F 73% 29.60 in 10.0 mi NNE 15.0 mph - N/A   Overcast
1:53 PM 46.0 °F 39.0 °F 39.0 °F 76% 29.56 in 10.0 mi NNE 17.3 mph - N/A   Overcast
2:08 PM 46.4 °F 40.1 °F 37.4 °F 71% 29.60 in 10.0 mi NNE 15.0 mph - N/A   Overcast
2:53 PM 44.1 °F 37.7 °F 39.0 °F 82% 29.58 in 5.0 mi NE 12.7 mph - 0.04 in Rain Rain
3:32 PM 42.8 °F 38.0 °F 39.2 °F 87% 29.64 in 1.8 mi ENE 8.1 mph - 0.14 in Rain Heavy Rain
3:53 PM 39.9 °F 30.0 °F 37.0 °F 89% 29.60 in 1.2 mi NNE 21.9 mph - 0.31 in Rain Heavy Rain
4:08 PM 39.2 °F 29.8 °F 37.4 °F 93% 29.62 in 3.0 mi NE 18.4 mph - 0.07 in Rain Light Rain
4:53 PM 41.0 °F 32.8 °F 37.9 °F 89% 29.62 in 10.0 mi NNE 16.1 mph 23.0 mph 0.13 in Rain Light Rain
5:22 PM 41.0 °F 39.0 °F 39.2 °F 93% 29.66 in 10.0 mi Variable 3.5 mph - 0.00 in Rain Light Rain
5:38 PM 39.2 °F - 37.4 °F 93% 29.65 in 2.0 mi Calm Calm - 0.05 in Rain Rain
5:46 PM 39.2 °F - 37.4 °F 93% 29.65 in 3.0 mi Calm Calm - 0.07 in Rain Light Rain
5:53 PM 39.9 °F - 37.9 °F 93% 29.65 in 7.0 mi Calm Calm - 0.07 in Rain Light Rain
6:20 PM 39.2 °F 34.2 °F 37.4 °F 93% 29.66 in 10.0 mi ENE 6.9 mph - 0.00 in   Mostly Cloudy
6:53 PM 39.9 °F 33.4 °F 37.0 °F 89% 29.67 in 10.0 mi NE 10.4 mph - 0.00 in   Overcast
6:59 PM 39.2 °F 32.0 °F 37.4 °F 93% 29.67 in 10.0 mi NE 11.5 mph - N/A   Overcast
7:42 PM 37.4 °F 28.2 °F 35.6 °F 93% 29.67 in 10.0 mi NE 16.1 mph 20.7 mph N/A   Overcast
7:53 PM 37.9 °F 30.5 °F 36.0 °F 93% 29.69 in 10.0 mi NE 11.5 mph - N/A   Overcast
8:01 PM 37.4 °F 30.3 °F 35.6 °F 93% 29.69 in 10.0 mi NE 10.4 mph - N/A   Overcast
8:33 PM 37.4 °F 28.2 °F 35.6 °F 93% 29.68 in 10.0 mi North 16.1 mph - 0.05 in   Overcast
8:53 PM 36.0 °F 26.3 °F 35.1 °F 97% 29.70 in 10.0 mi NNE 16.1 mph - 0.05 in   Overcast
9:14 PM 35.6 °F 27.5 °F 35.6 °F 100% 29.70 in 10.0 mi NNE 11.5 mph - N/A   Overcast
9:21 PM 35.6 °F 27.5 °F 35.6 °F 100% 29.70 in 10.0 mi NE 11.5 mph - N/A   Overcast
9:53 PM 36.0 °F 29.0 °F 34.0 °F 93% 29.70 in 10.0 mi NNE 9.2 mph - N/A   Overcast
10:21 PM 35.6 °F 28.0 °F 33.8 °F 93% 29.71 in 10.0 mi NNE 10.4 mph - N/A   Overcast
10:46 PM 35.6 °F 28.6 °F 33.8 °F 93% 29.71 in 10.0 mi NNE 9.2 mph - N/A   Overcast
10:53 PM 36.0 °F 29.6 °F 34.0 °F 93% 29.70 in 10.0 mi NNE 8.1 mph - N/A   Overcast
11:53 PM 35.1 °F 26.4 °F 34.0 °F 96% 29.71 in 10.0 mi NE 12.7 mph - N/A   Overcast